Wind_Speed
11 11 12 13 13 12 10 9 8 7 7 7 7 7 8 10 11 14 14 8 8 5 2 7 12 12 6 5 5 7 3 2 4 5 1 11 11 21 23 26 19 5 31 34 32
12 12 13 14 13 11 11 10 8 8 7 7 7 8 8 10 12 14 7 8 12 6 7 11 16 10 5 6 6 5 2 7 9 6 6 11 11 20 15 24 15 29 28 31 30
12 12 13 13 13 12 11 10 9 8 7 6 6 7 8 9 9 1 6 6 11 9 7 12 12 5 10 8 9 7 5 9 18 18 11 6 19 17 29 12 31 31 37 33 31
14 13 13 13 13 12 10 9 8 7 7 6 6 6 7 7 2 3 4 3 8 9 8 13 12 5 5 7 9 4 10 15 12 17 8 11 14 16 30 19 36 41 37 35 34
14 14 13 12 12 12 11 10 9 8 7 6 6 7 7 5 7 3 6 3 6 11 11 14 13 8 4 9 9 6 13 14 8 11 10 13 12 18 26 29 38 36 34 33 36
15 15 14 12 11 10 10 9 9 8 8 7 7 6 5 4 2 1 5 4 4 10 13 19 10 2 11 11 8 10 12 11 8 6 7 6 8 8 26 41 41 37 31 34 33
15 14 14 12 10 9 9 9 8 8 9 9 8 7 10 11 2 2 4 7 10 11 15 21 15 12 9 9 7 12 7 12 9 10 4 19 9 12 37 33 36 33 35 29 29
14 14 14 13 10 9 10 10 9 9 9 8 8 10 7 2 4 11 7 7 7 7 11 14 10 17 13 9 5 1 3 5 8 11 8 8 15 19 36 37 30 30 35 27 35
14 14 14 13 10 9 10 11 13 10 9 8 8 9 7 3 7 3 14 11 7 3 9 7 9 12 12 2 5 1 3 3 9 8 3 1 1 20 31 30 28 26 26 34 35
14 14 14 14 10 8 10 14 11 8 9 8 6 8 3 11 1 4 13 14 10 8 12 12 7 1 4 4 5 3 2 10 7 6 5 9 7 4 21 30 30 29 23 33 37
14 14 14 14 10 8 7 11 10 3 14 12 16 16 23 6 1 1 6 9 13 10 4 8 4 4 8 7 0 4 7 10 4 3 6 8 10 5 2 18 16 22 30 33 36
14 14 13 13 8 5 7 8 6 8 11 19 19 21 18 11 9 7 8 5 2 5 2 4 5 11 8 4 7 11 14 5 3 2 0 2 9 8 8 3 6 16 27 32 27
15 14 13 11 6 6 7 8 14 20 6 16 10 11 18 11 12 15 9 8 1 3 3 7 12 9 6 4 8 6 8 8 5 6 2 5 4 5 5 8 7 6 20 27 26
16 15 13 10 4 5 6 15 19 15 4 7 3 4 6 7 4 8 12 10 1 9 7 7 15 10 8 10 6 3 9 15 11 2 1 2 3 7 6 10 4 10 11 23 28
17 15 11 10 8 10 13 14 11 1 4 4 3 6 6 7 2 5 13 16 8 6 3 10 6 5 8 11 8 6 8 17 8 2 3 4 2 1 3 7 10 11 17 20 23
18 16 11 11 8 5 12 14 10 5 3 4 5 5 3 9 4 4 21 11 5 2 4 10 18 8 8 2 12 21 16 10 7 1 1 4 2 1 5 13 16 16 21 22 21
17 16 13 11 5 6 13 12 5 3 7 7 2 4 5 4 1 8 7 4 3 1 3 7 6 5 25 20 8 3 6 4 2 1 4 8 4 6 10 11 16 13 18 27 22
16 14 12 8 6 7 10 5 3 5 6 6 6 4 3 4 3 6 5 4 5 4 1 2 8 4 8 11 12 13 6 5 7 4 2 8 3 5 4 18 30 25 26 31 23
16 10 10 9 9 4 2 3 5 2 4 5 8 7 7 5 3 6 5 3 6 7 5 2 6 7 4 8 13 7 5 5 6 3 3 1 4 9 3 2 10 24 27 28 28
15 9 6 15 10 5 4 4 3 4 2 6 3 2 3 4 4 4 5 3 8 5 4 6 4 5 7 6 12 13 8 3 2 5 3 2 2 6 9 5 6 14 25 29 35
9 6 14 14 10 3 2 6 6 14 2 3 3 4 5 2 3 4 5 4 11 9 9 5 4 8 2 1 8 2 4 4 5 5 5 5 5 9 13 9 13 17 25 33 38
4 2 10 15 5 4 3 5 3 11 3 4 4 4 3 5 5 4 4 2 15 14 6 3 3 2 8 7 8 7 8 6 5 3 2 4 6 7 14 12 21 21 23 27 37
10 6 6 6 4 4 8 8 10 7 3 3 2 2 3 2 4 2 3 6 9 5 4 5 3 4 10 7 8 6 5 1 4 3 5 5 5 2 9 7 4 15 19 22 25
5 3 4 7 14 8 5 7 6 9 4 5 4 0 4 3 6 3 2 4 9 6 8 0 3 4 3 6 5 5 12 9 3 3 2 5 5 4 7 4 5 11 13 16 21
2 4 3 3 4 6 2 4 9 4 4 7 4 5 2 3 3 3 2 5 5 4 5 3 2 3 2 4 5 10 15 15 6 4 5 5 6 6 9 10 13 21 15 19 26
3 4 6 9 11 6 4 9 9 3 4 1 6 5 8 6 6 6 5 4 5 5 5 4 2 3 5 7 8 5 19 14 10 13 4 5 2 3 20 25 21 25 25 21 21
3 7 5 6 5 4 2 7 8 10 4 9 9 5 5 3 7 8 12 6 3 1 2 3 3 3 1 5 4 7 10 11 1 11 6 4 3 7 6 12 16 17 24 26 25
Wind_Direction
3 3 1 357 353 348 344 339 332 322 316 309 303 294 287 283 281 278 271 255 195 209 327 173 184 179 204 257 220 113 71 352 293 160 95 119 131 158 147 140 147 188 151 154 156
7 6 2 2 359 354 346 341 337 327 317 311 308 310 302 291 287 278 298 234 206 191 199 179 166 180 225 243 185 99 135 191 240 330 7 129 167 165 131 151 131 131 145 148 153
13 9 6 5 4 359 352 346 342 335 322 316 312 314 312 305 309 42 37 202 202 195 199 196 206 249 248 203 177 140 180 226 263 250 283 296 198 169 151 157 148 149 152 157 161
13 8 6 4 3 3 1 356 351 346 335 326 320 317 315 300 216 118 38 25 190 206 209 216 220 240 231 195 171 132 190 170 225 246 223 235 205 150 135 177 159 153 159 168 167
11 8 5 4 5 8 9 6 1 356 347 339 328 320 318 282 261 331 352 341 207 208 214 212 217 222 233 202 172 185 173 191 221 276 278 281 277 153 161 162 157 157 164 178 176
6 4 2 360 2 5 7 6 7 6 358 342 324 313 302 285 125 96 21 11 264 225 208 205 209 247 281 234 182 126 182 173 195 239 290 271 272 111 168 158 159 162 172 176 167
2 359 358 354 351 353 357 356 350 346 349 349 333 316 282 245 29 182 290 327 320 231 206 203 228 262 320 324 232 156 123 134 164 171 229 246 263 139 151 157 163 173 175 171 159
356 355 353 348 341 341 348 346 339 330 326 332 334 325 270 104 257 226 254 262 313 206 198 200 234 274 273 285 302 237 92 149 224 166 250 279 183 164 160 157 162 162 176 163 166
346 348 347 344 330 328 334 334 326 313 315 314 307 323 284 273 261 277 238 231 267 256 203 220 289 264 284 41 1 32 239 169 148 67 325 65 311 156 158 158 168 176 176 156 158
339 340 341 342 323 313 326 334 336 301 288 316 288 316 286 326 197 323 208 215 239 240 250 254 248 58 35 86 226 230 180 63 75 359 70 6 291 151 162 164 176 186 171 155 158
335 333 335 337 323 315 332 345 354 345 307 276 291 265 289 359 16 129 206 225 233 238 191 268 101 213 233 223 137 81 59 104 103 274 66 17 319 352 37 174 171 183 157 155 161
334 331 330 331 317 313 312 326 19 326 306 302 291 278 262 277 291 252 221 232 201 193 175 12 224 224 228 262 278 102 118 98 75 265 39 130 277 316 324 65 112 136 161 158 159
335 331 327 328 306 297 298 342 340 318 300 303 272 251 253 243 244 264 236 246 167 192 201 184 237 224 217 243 153 166 139 167 154 157 183 132 269 290 277 269 162 114 153 162 160
334 330 326 330 304 286 335 345 341 339 35 280 232 237 176 214 281 214 227 203 215 208 226 219 252 236 230 207 147 123 142 130 133 132 323 43 215 190 224 257 272 186 174 161 166
332 326 322 317 284 298 335 337 340 346 25 210 197 186 184 174 163 231 214 204 218 260 88 260 295 248 229 216 144 147 137 99 106 107 193 215 190 72 174 247 243 220 202 174 152
325 318 310 299 280 331 332 334 331 50 285 221 147 192 135 222 222 211 179 213 213 236 251 248 268 201 214 99 130 131 104 77 92 20 343 223 272 263 212 223 230 233 201 187 171
319 309 295 275 190 296 329 340 43 105 315 344 220 209 192 255 138 137 174 200 159 66 323 332 283 90 102 92 90 89 85 58 32 239 232 158 263 232 185 228 238 220 179 192 186
321 301 281 252 212 276 328 44 71 243 279 287 5 32 166 39 8 218 135 196 270 120 344 248 321 133 172 156 173 188 161 155 167 200 156 152 227 260 167 229 227 224 202 194 192
327 301 278 165 181 229 3 61 215 266 284 13 3 32 348 3 90 44 350 230 214 169 179 215 271 310 289 151 140 229 235 167 103 28 119 273 314 277 279 324 187 187 184 198 198
334 313 247 167 184 213 74 247 264 282 265 52 65 60 330 308 58 56 30 45 356 337 219 239 277 263 292 118 212 153 172 68 23 141 120 72 276 237 269 208 183 181 178 186 202
338 320 155 183 186 199 172 236 274 289 245 103 354 8 292 251 94 10 355 324 4 347 11 339 125 283 336 103 209 59 112 75 122 143 142 153 236 232 222 197 173 182 186 186 191
330 326 127 189 136 202 207 217 269 323 122 64 75 42 357 19 50 50 4 300 3 352 347 306 133 291 242 281 243 159 178 140 129 243 221 173 251 226 214 199 164 180 193 194 192
334 281 196 211 179 250 276 272 257 283 254 92 36 105 65 72 98 134 301 290 345 16 339 322 8 1 346 348 13 40 359 260 137 82 201 151 257 241 30 64 212 168 187 191 177
320 335 301 237 234 186 238 277 282 237 126 163 189 19 123 64 2 196 278 296 329 334 352 312 83 138 176 252 259 351 339 343 116 115 191 219 218 99 93 76 126 188 193 199 199
265 264 352 295 330 328 253 266 294 185 100 39 29 50 102 100 28 309 290 314 278 346 3 118 219 225 141 3 13 45 15 356 10 282 157 245 187 140 143 124 124 150 174 205 214
277 337 329 296 291 311 195 230 224 85 119 129 101 89 85 145 186 219 190 179 257 342 34 7 298 32 1 358 25 40 16 20 29 356 4 96 207 212 143 134 137 154 163 179 195
250 279 279 288 332 345 279 278 180 127 62 114 109 87 67 197 198 278 212 220 37 5 2 79 88 54 241 340 344 20 359 20 104 15 305 240 258 151 176 162 150 145 154 153 162
Height
1529 1528 1526 1524 1522 1520 1519 1518 1517 1516 1515 1515 1514 1513 1513 1512 1512 1511 1511 1512 1513 1515 1517 1519 1521 1523 1525 1524 1526 1526 1537 1543 1532 1524 1525 1521 1523 1529 1530 1534 1540 1540 1543 1549 1555
1529 1528 1526 1524 1522 1520 1518 1517 1516 1515 1514 1513 1513 1512 1511 1510 1510 1508 1509 1509 1512 1513 1516 1518 1520 1524 1524 1522 1525 1527 1538 1536 1527 1530 1530 1524 1527 1529 1532 1538 1541 1544 1549 1552 1554
1529 1528 1526 1524 1522 1520 1518 1516 1515 1514 1513 1512 1512 1511 1510 1508 1508 1506 1505 1506 1509 1512 1515 1518 1520 1523 1523 1521 1522 1527 1534 1530 1525 1529 1533 1531 1528 1528 1532 1537 1537 1541 1547 1552 1554
1529 1528 1526 1524 1522 1520 1518 1516 1515 1514 1513 1512 1511 1510 1509 1508 1510 1505 1506 1507 1508 1510 1513 1516 1519 1522 1521 1518 1517 1524 1525 1525 1526 1528 1531 1529 1526 1525 1526 1535 1536 1541 1544 1550 1554
1530 1528 1526 1524 1522 1520 1518 1517 1515 1513 1512 1512 1510 1510 1509 1508 1505 1505 1505 1506 1507 1508 1511 1515 1517 1519 1517 1513 1514 1516 1522 1524 1524 1529 1530 1529 1524 1521 1528 1533 1537 1542 1546 1548 1553
1530 1528 1526 1524 1522 1521 1519 1517 1515 1514 1512 1511 1510 1509 1509 1508 1503 1504 1505 1505 1506 1507 1510 1512 1511 1516 1515 1512 1513 1513 1517 1520 1521 1524 1526 1528 1525 1519 1525 1530 1537 1541 1545 1547 1554
1530 1528 1526 1524 1522 1521 1518 1517 1515 1514 1512 1511 1509 1508 1507 1502 1503 1503 1504 1505 1505 1505 1507 1510 1512 1516 1514 1512 1509 1511 1517 1523 1520 1525 1526 1533 1528 1521 1523 1530 1535 1540 1545 1548 1552
1530 1528 1526 1524 1522 1520 1518 1517 1515 1513 1512 1511 1509 1507 1502 1501 1501 1501 1502 1503 1504 1504 1506 1510 1513 1514 1515 1511 1510 1511 1515 1524 1522 1530 1532 1535 1532 1523 1523 1525 1533 1540 1544 1547 1550
1530 1528 1526 1523 1521 1520 1518 1516 1514 1512 1511 1510 1509 1508 1501 1500 1499 1499 1500 1502 1504 1504 1506 1509 1513 1511 1510 1513 1520 1514 1528 1522 1515 1538 1524 1528 1526 1522 1523 1528 1532 1537 1542 1547 1552
1529 1527 1525 1523 1521 1519 1518 1515 1513 1511 1510 1509 1508 1509 1500 1499 1497 1496 1497 1501 1503 1504 1507 1509 1511 1511 1512 1521 1540 1524 1520 1531 1537 1534 1532 1538 1532 1524 1526 1526 1530 1535 1541 1546 1549
1528 1526 1524 1522 1520 1518 1518 1515 1516 1513 1508 1505 1504 1503 1499 1499 1498 1498 1499 1500 1503 1504 1508 1506 1514 1520 1513 1509 1513 1516 1525 1534 1540 1536 1529 1539 1538 1531 1527 1529 1531 1534 1540 1544 1547
1527 1525 1523 1521 1519 1518 1516 1515 1514 1517 1507 1499 1498 1498 1496 1497 1498 1497 1498 1500 1500 1506 1504 1511 1518 1504 1504 1508 1509 1518 1530 1538 1537 1535 1533 1536 1540 1537 1533 1533 1531 1533 1536 1541 1548
1525 1523 1521 1520 1519 1518 1516 1516 1515 1514 1511 1495 1493 1494 1493 1495 1494 1495 1497 1497 1499 1503 1506 1515 1502 1501 1506 1510 1514 1519 1521 1535 1536 1540 1542 1542 1542 1539 1535 1536 1532 1533 1535 1539 1544
1524 1522 1520 1518 1520 1517 1515 1514 1513 1511 1519 1503 1492 1492 1492 1492 1493 1492 1494 1498 1499 1504 1503 1506 1496 1500 1503 1508 1509 1526 1517 1519 1532 1540 1547 1541 1547 1535 1535 1533 1530 1532 1534 1535 1540
1522 1520 1519 1517 1517 1516 1515 1511 1510 1510 1539 1492 1491 1490 1489 1491 1491 1490 1492 1496 1498 1500 1503 1505 1497 1497 1500 1497 1499 1522 1518 1517 1533 1544 1546 1544 1545 1533 1529 1532 1527 1526 1533 1535 1538
1520 1518 1516 1516 1515 1515 1512 1509 1508 1523 1532 1493 1487 1487 1489 1488 1488 1487 1490 1493 1493 1496 1496 1495 1487 1488 1488 1486 1494 1510 1518 1524 1531 1546 1553 1538 1533 1534 1530 1522 1520 1524 1530 1531 1536
1517 1515 1514 1514 1514 1513 1511 1509 1522 1532 1495 1495 1493 1488 1489 1490 1487 1486 1491 1495 1501 1508 1508 1495 1486 1484 1485 1505 1510 1513 1520 1548 1553 1554 1550 1538 1541 1525 1518 1520 1520 1522 1526 1531 1535
1513 1511 1510 1511 1513 1511 1511 1512 1526 1509 1504 1491 1490 1487 1493 1488 1488 1487 1493 1500 1494 1499 1510 1514 1514 1481 1486 1492 1504 1510 1509 1531 1548 1557 1541 1535 1539 1518 1509 1510 1511 1515 1521 1526 1531
1508 1507 1507 1509 1510 1511 1512 1526 1519 1505 1497 1495 1493 1500 1497 1489 1490 1490 1497 1498 1490 1493 1509 1508 1501 1475 1475 1480 1489 1511 1511 1499 1528 1532 1540 1537 1526 1505 1498 1502 1498 1506 1513 1520 1526
1506 1504 1504 1508 1509 1511 1514 1520 1506 1498 1493 1494 1506 1500 1504 1497 1499 1499 1502 1495 1497 1493 1491 1493 1509 1479 1471 1471 1479 1481 1483 1516 1524 1547 1549 1545 1539 1523 1501 1501 1500 1503 1508 1515 1522
1506 1503 1503 1505 1509 1512 1522 1515 1502 1495 1493 1495 1500 1502 1500 1497 1498 1506 1506 1496 1495 1492 1489 1492 1495 1491 1476 1479 1483 1485 1492 1499 1505 1515 1534 1547 1534 1492 1486 1486 1494 1499 1505 1508 1514
1505 1505 1501 1502 1509 1509 1511 1502 1495 1493 1492 1492 1493 1497 1500 1500 1511 1507 1505 1500 1498 1495 1497 1489 1498 1502 1489 1473 1467 1469 1482 1493 1518 1511 1511 1513 1512 1473 1473 1479 1484 1494 1501 1507 1509
1506 1502 1499 1501 1511 1509 1499 1496 1497 1494 1492 1492 1495 1494 1495 1503 1512 1507 1504 1495 1495 1496 1497 1494 1506 1515 1500 1485 1471 1483 1481 1482 1493 1500 1508 1513 1507 1469 1480 1485 1487 1492 1500 1510 1514
1508 1506 1498 1497 1496 1497 1499 1497 1494 1488 1488 1491 1492 1491 1497 1503 1508 1507 1504 1496 1492 1490 1490 1492 1506 1508 1519 1509 1497 1496 1487 1483 1488 1506 1502 1500 1487 1484 1487 1489 1488 1491 1497 1505 1511
1509 1504 1501 1503 1497 1496 1497 1494 1493 1488 1488 1489 1494 1494 1495 1508 1510 1509 1505 1500 1492 1489 1488 1492 1504 1500 1494 1498 1492 1493 1496 1488 1488 1489 1491 1483 1485 1488 1487 1488 1491 1490 1496 1501 1508
1508 1506 1502 1499 1497 1495 1489 1488 1488 1486 1487 1492 1495 1495 1494 1505 1503 1506 1506 1504 1500 1489 1492 1494 1503 1500 1502 1494 1496 1497 1499 1493 1492 1491 1484 1484 1488 1483 1483 1486 1491 1491 1493 1497 1500
1507 1506 1504 1496 1495 1495 1491 1484 1482 1481 1488 1486 1489 1495 1498 1497 1495 1493 1492 1493 1496 1496 1498 1500 1505 1511 1515 1510 1498 1516 1511 1508 1504 1502 1500 1491 1481 1483 1487 1488 1492 1496 1495 1496 1499